RYR7HV LBSF-EIDW

Flight info

Callsign RYR7HV
Flight time 3h 25m
Altitude 38000
Route OGOTA T228 UTEKA DCT TONDO DCT BEGLA DCT DITIS DCT VEXIL DCT KATCE DCT AMSAN DCT RAVLO Y70 OTBED L60 PENIL UL28 LELDO M145 BAGSO
Aircraft B738/M-SDE2E3FGHIRWXY/LB1

Departure

Time 2026-05-06 13:10
Airport Sofia Airport (LBSF)

Arrival

Time 2026-05-06 16:35
Airport Dublin Airport (EIDW)
Time Latitude Longitude Altitude Speed Heading
2026-05-06 12:36 42.69203 23.41408 1742 ft 0 kts 252°
2026-05-06 13:00 42.69203 23.41409 1776 ft 2 kts 252°
2026-05-06 13:00 42.69210 23.41441 1742 ft 4 kts 261°
2026-05-06 13:00 42.69212 23.41477 1747 ft 4 kts 275°
2026-05-06 13:01 42.69208 23.41507 1746 ft 1 kts 290°
2026-05-06 13:04 42.69208 23.41506 1749 ft 0 kts 291°
2026-05-06 13:04 42.69237 23.41507 1743 ft 10 kts 10°
2026-05-06 13:05 42.69355 23.41519 1747 ft 20 kts
2026-05-06 13:05 42.69463 23.41586 1746 ft 18 kts 75°
2026-05-06 13:05 42.69455 23.41803 1749 ft 25 kts 94°
2026-05-06 13:05 42.69441 23.42029 1750 ft 23 kts 95°
2026-05-06 13:06 42.69428 23.42259 1750 ft 24 kts 95°
2026-05-06 13:06 42.69415 23.42479 1750 ft 23 kts 95°
2026-05-06 13:06 42.69402 23.42691 1751 ft 22 kts 96°
2026-05-06 13:06 42.69389 23.42897 1751 ft 22 kts 94°
2026-05-06 13:07 42.69377 23.43097 1747 ft 21 kts 95°
2026-05-06 13:07 42.69366 23.43291 1751 ft 20 kts 95°
2026-05-06 13:07 42.69355 23.43477 1751 ft 20 kts 94°
2026-05-06 13:07 42.69343 23.43659 1752 ft 19 kts 94°
2026-05-06 13:08 42.69334 23.43832 1744 ft 17 kts 94°
2026-05-06 13:08 42.69380 23.43943 1752 ft 15 kts 13°
2026-05-06 13:08 42.69472 23.43952 1752 ft 12 kts 357°
2026-05-06 13:08 42.69519 23.43882 1745 ft 11 kts 275°
2026-05-06 13:09 42.69528 23.43731 1748 ft 36 kts 275°
2026-05-06 13:09 42.69566 23.43065 1749 ft 104 kts 275°
2026-05-06 13:09 42.69642 23.41811 1751 ft 160 kts 275°
2026-05-06 13:09 42.69741 23.40155 2117 ft 181 kts 275°
2026-05-06 13:10 42.69878 23.38486 3010 ft 179 kts 283°
2026-05-06 13:10 42.70386 23.36886 3631 ft 188 kts 306°
2026-05-06 13:10 42.71340 23.35605 4094 ft 210 kts 325°
2026-05-06 13:10 42.72750 23.34767 4289 ft 235 kts 347°
2026-05-06 13:11 42.74434 23.34454 4688 ft 250 kts 354°
2026-05-06 13:11 42.76201 23.34255 5222 ft 263 kts 355°
2026-05-06 13:11 42.78089 23.34025 5778 ft 278 kts 354°
2026-05-06 13:11 42.80027 23.33753 6612 ft 279 kts 353°
2026-05-06 13:12 42.81977 23.33460 7348 ft 285 kts 353°
2026-05-06 13:12 42.83953 23.33154 8166 ft 286 kts 352°
2026-05-06 13:12 42.85952 23.32901 8965 ft 290 kts 356°
2026-05-06 13:12 42.87978 23.32849 9774 ft 293 kts 359°
2026-05-06 13:13 42.90034 23.32857 10383 ft 303 kts 359°
2026-05-06 13:13 42.92227 23.32868 10552 ft 327 kts 359°
2026-05-06 13:13 42.94576 23.32872 10806 ft 347 kts 359°
2026-05-06 13:13 42.97027 23.32866 11323 ft 356 kts 359°
2026-05-06 13:14 42.99520 23.32854 12033 ft 359 kts 358°
2026-05-06 13:14 43.02030 23.32838 12776 ft 362 kts 358°
2026-05-06 13:14 43.04564 23.32819 13504 ft 366 kts 358°
2026-05-06 13:14 43.07122 23.32796 14169 ft 370 kts 358°
2026-05-06 13:15 43.09700 23.32772 14895 ft 371 kts 358°
2026-05-06 13:15 43.12255 23.32750 15538 ft 374 kts 358°
2026-05-06 13:15 43.14868 23.32726 16132 ft 378 kts 358°
2026-05-06 13:15 43.17506 23.32705 16800 ft 380 kts 358°
2026-05-06 13:16 43.20143 23.32423 17413 ft 381 kts 344°
2026-05-06 13:16 43.22575 23.31021 18039 ft 381 kts 325°
2026-05-06 13:16 43.24611 23.28688 18630 ft 382 kts 315°
2026-05-06 13:16 43.26521 23.26136 19185 ft 384 kts 314°
2026-05-06 13:17 43.28426 23.23540 19724 ft 386 kts 314°
2026-05-06 13:17 43.30341 23.20939 20276 ft 388 kts 315°
2026-05-06 13:17 43.32252 23.18371 20791 ft 391 kts 315°
2026-05-06 13:17 43.34210 23.15762 21315 ft 393 kts 315°
2026-05-06 13:18 43.36183 23.13145 21834 ft 396 kts 315°
2026-05-06 13:18 43.38166 23.10516 22348 ft 398 kts 316°
2026-05-06 13:18 43.40164 23.07865 22877 ft 399 kts 316°
2026-05-06 13:18 43.42164 23.05208 23366 ft 402 kts 316°
2026-05-06 13:19 43.44183 23.02525 23779 ft 404 kts 316°
2026-05-06 13:19 43.46209 22.99830 24172 ft 407 kts 316°
2026-05-06 13:19 43.48246 22.97117 24573 ft 408 kts 315°
2026-05-06 13:19 43.50289 22.94393 24978 ft 410 kts 315°
2026-05-06 13:20 43.52339 22.91656 25369 ft 412 kts 315°
2026-05-06 13:20 43.54400 22.88903 25731 ft 414 kts 315°
2026-05-06 13:20 43.56471 22.86131 26080 ft 416 kts 315°
2026-05-06 13:20 43.58552 22.83346 26444 ft 418 kts 315°
2026-05-06 13:21 43.60642 22.80545 26816 ft 419 kts 315°
2026-05-06 13:21 43.62736 22.77734 27150 ft 421 kts 315°
2026-05-06 13:21 43.64841 22.74907 27468 ft 424 kts 315°
2026-05-06 13:21 43.66958 22.72061 27789 ft 426 kts 315°
2026-05-06 13:22 43.69084 22.69200 28113 ft 427 kts 315°
2026-05-06 13:22 43.71188 22.66365 28432 ft 429 kts 315°
2026-05-06 13:22 43.73329 22.63479 28735 ft 431 kts 315°
2026-05-06 13:22 43.75484 22.60569 28988 ft 434 kts 314°
2026-05-06 13:23 43.77647 22.57644 29278 ft 436 kts 314°
2026-05-06 13:23 43.79818 22.54707 29582 ft 437 kts 314°
2026-05-06 13:23 43.81990 22.51766 29940 ft 437 kts 314°
2026-05-06 13:23 43.84160 22.48824 30325 ft 435 kts 314°
2026-05-06 13:24 43.86312 22.45902 30718 ft 432 kts 314°
2026-05-06 13:24 43.88456 22.42990 31102 ft 430 kts 314°
2026-05-06 13:24 43.90588 22.40091 31437 ft 429 kts 314°
2026-05-06 13:24 43.92689 22.37238 31754 ft 428 kts 314°
2026-05-06 13:25 43.94818 22.34365 32089 ft 427 kts 314°
2026-05-06 13:25 43.96945 22.31500 32440 ft 425 kts 314°
2026-05-06 13:25 43.99064 22.28647 32773 ft 424 kts 314°
2026-05-06 13:25 44.01173 22.25802 33096 ft 422 kts 314°
2026-05-06 13:26 44.03277 22.22959 33374 ft 422 kts 314°
2026-05-06 13:26 44.05379 22.20115 33678 ft 421 kts 314°
2026-05-06 13:26 44.07470 22.17282 34021 ft 419 kts 314°
2026-05-06 13:26 44.09552 22.14458 34279 ft 418 kts 314°
2026-05-06 13:27 44.11631 22.11633 34498 ft 418 kts 314°
2026-05-06 13:27 44.13708 22.08809 34711 ft 418 kts 314°
2026-05-06 13:27 44.15785 22.05981 34920 ft 417 kts 314°
2026-05-06 13:27 44.17860 22.03153 35163 ft 417 kts 314°
2026-05-06 13:28 44.19927 22.00333 35411 ft 416 kts 314°
2026-05-06 13:28 44.21988 21.97520 35629 ft 415 kts 313°
2026-05-06 13:28 44.24049 21.94703 35820 ft 415 kts 313°
2026-05-06 13:28 44.26107 21.91885 35985 ft 415 kts 313°
2026-05-06 13:29 44.28167 21.89064 36207 ft 414 kts 313°
2026-05-06 13:29 44.30217 21.86254 36457 ft 412 kts 313°
2026-05-06 13:29 44.32258 21.83451 36675 ft 411 kts 313°
2026-05-06 13:29 44.34268 21.80690 36842 ft 411 kts 313°
2026-05-06 13:30 44.36308 21.77884 37010 ft 411 kts 313°
2026-05-06 13:30 44.38346 21.75078 37201 ft 411 kts 313°
2026-05-06 13:30 44.40380 21.72275 37392 ft 410 kts 313°
2026-05-06 13:30 44.42408 21.69476 37517 ft 411 kts 313°
2026-05-06 13:31 44.44450 21.66655 37541 ft 414 kts 313°
2026-05-06 13:31 44.48567 21.60958 37633 ft 419 kts 313°
2026-05-06 13:32 44.52729 21.55187 37690 ft 423 kts 313°
2026-05-06 13:32 44.56922 21.49363 37827 ft 423 kts 313°
2026-05-06 13:32 44.58999 21.46475 37929 ft 420 kts 313°
2026-05-06 13:33 44.61077 21.43582 37964 ft 421 kts 312°
2026-05-06 13:33 44.65244 21.37767 37967 ft 424 kts 312°
2026-05-06 13:34 44.69406 21.31947 37966 ft 426 kts 312°
2026-05-06 13:34 44.73612 21.26054 37961 ft 427 kts 312°
2026-05-06 13:35 44.77819 21.20146 37959 ft 428 kts 312°
2026-05-06 13:35 44.82027 21.14225 37960 ft 428 kts 312°
2026-05-06 13:36 44.86231 21.08297 37957 ft 427 kts 312°
2026-05-06 13:36 44.90423 21.02371 37961 ft 427 kts 311°
2026-05-06 13:37 44.94584 20.96477 37959 ft 426 kts 311°
2026-05-06 13:37 44.98763 20.90545 37949 ft 426 kts 311°
2026-05-06 13:38 45.02934 20.84610 37959 ft 425 kts 311°
2026-05-06 13:38 45.07095 20.78677 37949 ft 425 kts 311°
2026-05-06 13:39 45.11252 20.72737 37953 ft 424 kts 311°
2026-05-06 13:39 45.15404 20.66790 37953 ft 424 kts 311°
2026-05-06 13:40 45.19518 20.60884 37951 ft 424 kts 311°
2026-05-06 13:40 45.23661 20.54924 37946 ft 424 kts 311°
2026-05-06 13:41 45.27799 20.48960 37942 ft 424 kts 310°
2026-05-06 13:41 45.31931 20.42989 37950 ft 424 kts 310°
2026-05-06 13:42 45.36060 20.37011 37941 ft 424 kts 310°
2026-05-06 13:42 45.40188 20.31019 37944 ft 424 kts 310°
2026-05-06 13:43 45.44315 20.25016 37943 ft 424 kts 310°
2026-05-06 13:43 45.47746 20.20016 37941 ft 424 kts 310°
2026-05-06 13:44 45.51873 20.13988 37942 ft 425 kts 310°
2026-05-06 13:44 45.55996 20.07953 37939 ft 425 kts 310°
2026-05-06 13:45 45.60117 20.01908 37939 ft 425 kts 310°
2026-05-06 13:45 45.66296 19.92818 37935 ft 425 kts 310°
2026-05-06 13:46 45.70413 19.86745 37936 ft 425 kts 310°
2026-05-06 13:46 45.74528 19.80659 37932 ft 425 kts 309°
2026-05-06 13:47 45.78645 19.74559 37934 ft 426 kts 309°
2026-05-06 13:47 45.82755 19.68453 37928 ft 426 kts 309°
2026-05-06 13:48 45.86840 19.62373 37929 ft 426 kts 309°
2026-05-06 13:48 45.90950 19.56239 37923 ft 426 kts 309°
2026-05-06 13:49 45.95060 19.50093 37918 ft 426 kts 309°
2026-05-06 13:49 45.99167 19.43936 37927 ft 427 kts 309°
2026-05-06 13:50 46.03246 19.37808 37916 ft 427 kts 309°
2026-05-06 13:50 46.07590 19.31925 37921 ft 431 kts 315°
2026-05-06 13:51 46.12219 19.26412 37926 ft 432 kts 316°
2026-05-06 13:51 46.16867 19.20907 37920 ft 432 kts 315°
2026-05-06 13:52 46.21461 19.15397 37920 ft 432 kts 315°
2026-05-06 13:52 46.26074 19.09814 37915 ft 433 kts 315°
2026-05-06 13:53 46.30687 19.04208 37917 ft 433 kts 315°
2026-05-06 13:53 46.35300 18.98587 37914 ft 434 kts 315°
2026-05-06 13:54 46.39918 18.92949 37912 ft 434 kts 315°
2026-05-06 13:54 46.44536 18.87299 37910 ft 435 kts 315°
2026-05-06 13:55 46.49159 18.81630 37909 ft 435 kts 315°
2026-05-06 13:55 46.53781 18.75950 37912 ft 436 kts 315°
2026-05-06 13:56 46.58405 18.70253 37908 ft 436 kts 315°
2026-05-06 13:56 46.63033 18.64538 37913 ft 437 kts 315°
2026-05-06 13:57 46.67662 18.58808 37907 ft 437 kts 315°
2026-05-06 13:57 46.72289 18.53068 37912 ft 437 kts 315°
2026-05-06 13:58 46.76917 18.47313 37909 ft 437 kts 315°
2026-05-06 13:58 46.81544 18.41546 37912 ft 438 kts 315°
2026-05-06 13:59 46.86169 18.35767 37911 ft 438 kts 315°
2026-05-06 13:59 46.90795 18.29974 37905 ft 438 kts 315°
2026-05-06 14:00 46.95391 18.24206 37908 ft 438 kts 314°
2026-05-06 14:00 47.00018 18.18383 37901 ft 439 kts 314°
2026-05-06 14:01 47.04645 18.12548 37907 ft 439 kts 314°
2026-05-06 14:01 47.09273 18.06697 37902 ft 439 kts 314°
2026-05-06 14:02 47.13899 18.00835 37902 ft 439 kts 314°
2026-05-06 14:02 47.18494 17.94998 37901 ft 439 kts 314°
2026-05-06 14:03 47.23118 17.89110 37890 ft 440 kts 314°
2026-05-06 14:03 47.27746 17.83204 37878 ft 440 kts 314°
2026-05-06 14:04 47.32375 17.77280 37866 ft 441 kts 314°
2026-05-06 14:04 47.37007 17.71339 37869 ft 442 kts 314°
2026-05-06 14:05 47.41614 17.65417 37865 ft 442 kts 314°
2026-05-06 14:05 47.46256 17.59435 37858 ft 443 kts 314°
2026-05-06 14:06 47.50901 17.53433 37863 ft 444 kts 314°
2026-05-06 14:06 47.55557 17.47403 37863 ft 445 kts 314°
2026-05-06 14:07 47.60214 17.41357 37863 ft 446 kts 314°
2026-05-06 14:07 47.64876 17.35290 37855 ft 446 kts 314°
2026-05-06 14:08 47.69505 17.29250 37852 ft 446 kts 314°
2026-05-06 14:08 47.74166 17.23153 37844 ft 447 kts 314°
2026-05-06 14:09 47.78829 17.17040 37830 ft 447 kts 313°
2026-05-06 14:09 47.83441 17.10858 37819 ft 444 kts 308°
2026-05-06 14:10 47.87399 17.03888 37814 ft 441 kts 304°
2026-05-06 14:10 47.90317 16.98503 37823 ft 440 kts 304°
2026-05-06 14:11 47.93900 16.91902 37805 ft 440 kts 304°
2026-05-06 14:11 47.97770 16.84820 37793 ft 440 kts 304°
2026-05-06 14:12 48.01644 16.77745 37787 ft 440 kts 304°
2026-05-06 14:12 48.05513 16.70669 37775 ft 440 kts 304°
2026-05-06 14:13 48.09379 16.63580 37779 ft 440 kts 304°
2026-05-06 14:13 48.13240 16.56479 37777 ft 440 kts 304°
2026-05-06 14:14 48.17101 16.49358 37779 ft 440 kts 304°
2026-05-06 14:14 48.20935 16.42269 37778 ft 441 kts 303°
2026-05-06 14:15 48.24797 16.35109 37771 ft 442 kts 303°
2026-05-06 14:15 48.28662 16.27926 37767 ft 442 kts 303°
2026-05-06 14:16 48.32525 16.20725 37765 ft 443 kts 303°
2026-05-06 14:16 48.36391 16.13501 37763 ft 444 kts 303°
2026-05-06 14:17 48.40257 16.06256 37755 ft 444 kts 303°
2026-05-06 14:17 48.44099 15.99037 37749 ft 445 kts 303°
2026-05-06 14:18 48.47969 15.91747 37750 ft 446 kts 303°
2026-05-06 14:18 48.51840 15.84435 37736 ft 446 kts 303°
2026-05-06 14:19 48.55709 15.77106 37757 ft 447 kts 303°
2026-05-06 14:19 48.59554 15.69803 37764 ft 448 kts 303°
2026-05-06 14:20 48.63427 15.62427 37748 ft 448 kts 303°
2026-05-06 14:20 48.67302 15.55026 37746 ft 449 kts 303°
2026-05-06 14:21 48.71176 15.47606 37754 ft 449 kts 303°
2026-05-06 14:21 48.75048 15.40168 37759 ft 450 kts 303°
2026-05-06 14:22 48.78921 15.32709 37757 ft 451 kts 303°
2026-05-06 14:22 48.82800 15.25216 37753 ft 452 kts 303°
2026-05-06 14:23 48.86677 15.17709 37754 ft 452 kts 303°
2026-05-06 14:23 48.90596 15.10228 37757 ft 455 kts 306°
2026-05-06 14:24 48.94939 15.03190 37766 ft 457 kts 309°
2026-05-06 14:24 48.99401 14.96265 37758 ft 459 kts 309°
2026-05-06 14:25 49.03844 14.89290 37752 ft 459 kts 308°
2026-05-06 14:25 49.08259 14.82259 37757 ft 459 kts 308°
2026-05-06 14:26 49.12661 14.75197 37759 ft 459 kts 308°
2026-05-06 14:26 49.17060 14.68115 37754 ft 459 kts 308°
2026-05-06 14:27 49.21428 14.61068 37760 ft 460 kts 308°
2026-05-06 14:27 49.25823 14.53959 37756 ft 460 kts 308°
2026-05-06 14:28 49.30216 14.46834 37763 ft 460 kts 308°
2026-05-06 14:28 49.34606 14.39694 37757 ft 461 kts 308°
2026-05-06 14:29 49.38999 14.32529 37762 ft 461 kts 307°
2026-05-06 14:29 49.43391 14.25345 37766 ft 462 kts 307°
2026-05-06 14:30 49.47782 14.18143 37773 ft 462 kts 307°
2026-05-06 14:30 49.52146 14.10965 37770 ft 462 kts 307°
2026-05-06 14:31 49.56534 14.03729 37769 ft 462 kts 307°
2026-05-06 14:31 49.60921 13.96473 37768 ft 463 kts 307°
2026-05-06 14:32 49.65302 13.89205 37768 ft 463 kts 307°
2026-05-06 14:32 49.69682 13.81920 37779 ft 463 kts 307°
2026-05-06 14:33 49.74062 13.74612 37767 ft 463 kts 307°
2026-05-06 14:33 49.78410 13.67340 37772 ft 463 kts 307°
2026-05-06 14:34 49.82779 13.60009 37776 ft 464 kts 307°
2026-05-06 14:34 49.87148 13.52658 37776 ft 463 kts 307°
2026-05-06 14:35 49.91510 13.45297 37783 ft 464 kts 307°
2026-05-06 14:35 49.95880 13.37901 37773 ft 464 kts 307°
2026-05-06 14:36 50.00238 13.30507 37777 ft 464 kts 307°
2026-05-06 14:36 50.04583 13.23111 37779 ft 463 kts 307°
2026-05-06 14:37 50.08189 13.16957 37788 ft 463 kts 307°
2026-05-06 14:37 50.12521 13.09543 37799 ft 463 kts 307°
2026-05-06 14:38 50.16851 13.02114 37799 ft 463 kts 307°
2026-05-06 14:38 50.21173 12.94675 37804 ft 462 kts 307°
2026-05-06 14:39 50.24758 12.88486 37806 ft 463 kts 307°
2026-05-06 14:39 50.29799 12.79760 37798 ft 463 kts 307°
2026-05-06 14:40 50.33731 12.71887 37798 ft 456 kts 298°
2026-05-06 14:40 50.35982 12.66262 37788 ft 455 kts 297°
2026-05-06 14:41 50.39263 12.57842 37782 ft 456 kts 297°
2026-05-06 14:41 50.42601 12.49377 37760 ft 457 kts 297°
2026-05-06 14:42 50.45976 12.40914 37754 ft 458 kts 298°
2026-05-06 14:42 50.47096 12.38112 37755 ft 458 kts 298°
2026-05-06 14:43 50.50483 12.29629 37760 ft 459 kts 298°
2026-05-06 14:43 50.57388 12.12237 37757 ft 460 kts 297°
2026-05-06 14:44 50.60768 12.03677 37755 ft 461 kts 297°
2026-05-06 14:45 50.65834 11.90795 37758 ft 461 kts 297°
2026-05-06 14:45 50.69208 11.82178 37760 ft 462 kts 297°
2026-05-06 14:46 50.72581 11.73537 37757 ft 463 kts 297°
2026-05-06 14:46 50.75950 11.64878 37763 ft 463 kts 297°
2026-05-06 14:47 50.79317 11.56193 37760 ft 464 kts 297°
2026-05-06 14:47 50.82681 11.47487 37756 ft 464 kts 297°
2026-05-06 14:48 50.86038 11.38761 37766 ft 464 kts 297°
2026-05-06 14:48 50.89387 11.30022 37744 ft 464 kts 297°
2026-05-06 14:49 50.92736 11.21282 37755 ft 464 kts 297°
2026-05-06 14:49 50.96076 11.12529 37758 ft 464 kts 297°
2026-05-06 14:50 50.99412 11.03750 37749 ft 464 kts 297°
2026-05-06 14:50 51.02738 10.94965 37748 ft 464 kts 297°
2026-05-06 14:51 51.06056 10.86172 37751 ft 463 kts 297°
2026-05-06 14:51 51.09361 10.77383 37760 ft 463 kts 297°
2026-05-06 14:52 51.12660 10.68579 37765 ft 463 kts 297°
2026-05-06 14:52 51.15930 10.59823 37763 ft 463 kts 297°
2026-05-06 14:53 51.19217 10.50992 37772 ft 463 kts 297°
2026-05-06 14:53 51.22493 10.42162 37766 ft 462 kts 297°
2026-05-06 14:54 51.25713 10.33280 37765 ft 461 kts 293°
2026-05-06 14:54 51.28496 10.24092 37773 ft 459 kts 291°
2026-05-06 14:55 51.31163 10.14818 37769 ft 460 kts 291°
2026-05-06 14:55 51.33850 10.05528 37766 ft 460 kts 291°
2026-05-06 14:56 51.36556 9.96247 37773 ft 461 kts 291°
2026-05-06 14:56 51.39268 9.86954 37775 ft 461 kts 291°
2026-05-06 14:57 51.41977 9.77638 37782 ft 461 kts 291°
2026-05-06 14:57 51.44679 9.68307 37778 ft 462 kts 291°
2026-05-06 14:58 51.47357 9.59018 37778 ft 462 kts 291°
2026-05-06 14:58 51.50047 9.49653 37808 ft 462 kts 291°
2026-05-06 14:59 51.52729 9.40277 37818 ft 462 kts 291°
2026-05-06 14:59 51.55405 9.30885 37811 ft 462 kts 291°
2026-05-06 15:00 51.58071 9.21492 37803 ft 462 kts 291°
2026-05-06 15:00 51.60727 9.12093 37816 ft 461 kts 291°
2026-05-06 15:01 51.63376 9.02687 37832 ft 461 kts 291°
2026-05-06 15:01 51.66014 8.93277 37825 ft 460 kts 291°
2026-05-06 15:02 51.68642 8.83869 37834 ft 460 kts 291°
2026-05-06 15:02 51.71239 8.74533 37834 ft 459 kts 290°
2026-05-06 15:03 51.73843 8.65131 37824 ft 459 kts 290°
2026-05-06 15:03 51.76438 8.55726 37828 ft 458 kts 290°
2026-05-06 15:04 51.79022 8.46326 37831 ft 458 kts 290°
2026-05-06 15:04 51.81602 8.36898 37838 ft 458 kts 290°
2026-05-06 15:05 51.84171 8.27474 37839 ft 458 kts 290°
2026-05-06 15:05 51.86735 8.18028 37845 ft 460 kts 290°
2026-05-06 15:06 51.89299 8.08543 37852 ft 460 kts 290°
2026-05-06 15:06 51.91862 7.99023 37863 ft 462 kts 290°
2026-05-06 15:07 51.94430 7.89445 37852 ft 464 kts 290°
2026-05-06 15:07 51.96981 7.79898 37840 ft 458 kts 290°
2026-05-06 15:08 51.99478 7.70512 37858 ft 455 kts 290°
2026-05-06 15:08 52.01974 7.61085 37857 ft 454 kts 290°
2026-05-06 15:09 52.04458 7.51663 37878 ft 454 kts 290°
2026-05-06 15:09 52.06944 7.42195 37868 ft 456 kts 290°
2026-05-06 15:10 52.09423 7.32719 37863 ft 455 kts 290°
2026-05-06 15:10 52.11893 7.23233 37866 ft 455 kts 290°
2026-05-06 15:11 52.14339 7.13811 37871 ft 455 kts 290°
2026-05-06 15:11 52.16620 7.04214 37872 ft 454 kts 287°
2026-05-06 15:12 52.18651 6.94483 37879 ft 454 kts 285°
2026-05-06 15:12 52.20658 6.84736 37876 ft 454 kts 286°
2026-05-06 15:13 52.22687 6.74988 37881 ft 454 kts 286°
2026-05-06 15:13 52.24726 6.65241 37885 ft 454 kts 286°
2026-05-06 15:14 52.26760 6.55488 37883 ft 454 kts 286°
2026-05-06 15:14 52.28786 6.45728 37886 ft 454 kts 286°
2026-05-06 15:15 52.30804 6.35955 37883 ft 454 kts 286°
2026-05-06 15:15 52.32813 6.26173 37889 ft 454 kts 286°
2026-05-06 15:16 52.34815 6.16377 37888 ft 454 kts 286°
2026-05-06 15:16 52.36810 6.06570 37879 ft 454 kts 285°
2026-05-06 15:17 52.38796 5.96754 37889 ft 454 kts 285°
2026-05-06 15:17 52.40774 5.86932 37881 ft 454 kts 285°
2026-05-06 15:18 52.42730 5.77170 37892 ft 454 kts 285°
2026-05-06 15:18 52.44691 5.67331 37889 ft 454 kts 285°
2026-05-06 15:19 52.46643 5.57490 37881 ft 454 kts 285°
2026-05-06 15:19 52.48587 5.47641 37886 ft 454 kts 285°
2026-05-06 15:20 52.50523 5.37778 37884 ft 454 kts 285°
2026-05-06 15:20 52.52451 5.27911 37893 ft 454 kts 285°
2026-05-06 15:21 52.54371 5.18027 37889 ft 454 kts 285°
2026-05-06 15:21 52.56271 5.08200 37896 ft 454 kts 285°
2026-05-06 15:22 52.58177 4.98290 37911 ft 454 kts 285°
2026-05-06 15:22 52.60075 4.88374 37909 ft 455 kts 285°
2026-05-06 15:23 52.61965 4.78444 37918 ft 455 kts 285°
2026-05-06 15:23 52.63844 4.68515 37920 ft 454 kts 285°
2026-05-06 15:24 52.65706 4.58629 37922 ft 454 kts 285°
2026-05-06 15:24 52.67569 4.48688 37928 ft 454 kts 285°
2026-05-06 15:25 52.69422 4.38746 37927 ft 453 kts 285°
2026-05-06 15:25 52.71262 4.28820 37930 ft 453 kts 285°
2026-05-06 15:26 52.73093 4.18885 37931 ft 452 kts 285°
2026-05-06 15:26 52.74901 4.09023 37933 ft 452 kts 284°
2026-05-06 15:27 52.76713 3.99093 37940 ft 451 kts 284°
2026-05-06 15:27 52.78512 3.89172 37945 ft 451 kts 284°
2026-05-06 15:28 52.80302 3.79249 37947 ft 451 kts 284°
2026-05-06 15:28 52.82084 3.69321 37952 ft 450 kts 284°
2026-05-06 15:29 52.83856 3.59391 37953 ft 450 kts 284°
2026-05-06 15:29 52.85619 3.49454 37957 ft 450 kts 284°
2026-05-06 15:30 52.87360 3.39589 37956 ft 450 kts 284°
2026-05-06 15:30 52.89106 3.29646 37958 ft 450 kts 284°
2026-05-06 15:31 52.90844 3.19699 37959 ft 450 kts 284°
2026-05-06 15:31 52.92464 3.09701 37964 ft 449 kts 281°
2026-05-06 15:32 52.94202 2.96241 37974 ft 449 kts 280°
2026-05-06 15:32 52.95698 2.84478 37971 ft 449 kts 281°
2026-05-06 15:33 52.96794 2.75996 37976 ft 449 kts 281°
2026-05-06 15:33 52.98105 2.65868 37977 ft 449 kts 281°
2026-05-06 15:34 52.99407 2.55739 37982 ft 449 kts 281°
2026-05-06 15:34 53.00700 2.45598 37984 ft 449 kts 280°
2026-05-06 15:35 53.01984 2.35449 37985 ft 449 kts 280°
2026-05-06 15:35 53.03250 2.25369 37988 ft 449 kts 280°
2026-05-06 15:36 53.04518 2.15215 37985 ft 449 kts 280°
2026-05-06 15:36 53.05774 2.05064 37989 ft 448 kts 280°
2026-05-06 15:37 53.07019 1.94904 37992 ft 448 kts 280°
2026-05-06 15:37 53.08255 1.84751 37990 ft 448 kts 280°
2026-05-06 15:38 53.09473 1.74667 37994 ft 447 kts 280°
2026-05-06 15:38 53.10690 1.64523 37994 ft 447 kts 280°
2026-05-06 15:39 53.11897 1.54378 37996 ft 447 kts 280°
2026-05-06 15:39 53.13095 1.44238 37992 ft 446 kts 280°
2026-05-06 15:40 53.14283 1.34099 37995 ft 446 kts 280°
2026-05-06 15:40 53.15461 1.23972 37996 ft 445 kts 279°
2026-05-06 15:41 53.16630 1.13840 38001 ft 445 kts 279°
2026-05-06 15:41 53.17788 1.03719 37996 ft 444 kts 279°
2026-05-06 15:42 53.18938 0.93597 38002 ft 444 kts 279°
2026-05-06 15:42 53.20071 0.83536 38001 ft 444 kts 279°
2026-05-06 15:43 53.21203 0.73407 38006 ft 445 kts 279°
2026-05-06 15:43 53.22329 0.63262 38009 ft 445 kts 279°
2026-05-06 15:44 53.23446 0.53103 38017 ft 445 kts 279°
2026-05-06 15:44 53.24554 0.42938 38021 ft 445 kts 279°
2026-05-06 15:45 53.25653 0.32763 38025 ft 445 kts 279°
2026-05-06 15:45 53.26744 0.22574 38036 ft 445 kts 279°
2026-05-06 15:46 53.27828 0.12385 38036 ft 445 kts 279°
2026-05-06 15:46 53.28903 0.02191 38043 ft 445 kts 279°
2026-05-06 15:47 53.29967 -0.08011 38047 ft 445 kts 279°
2026-05-06 15:47 53.31015 -0.18141 38046 ft 445 kts 279°
2026-05-06 15:48 53.32062 -0.28341 38044 ft 445 kts 279°
2026-05-06 15:48 53.33101 -0.38540 38055 ft 445 kts 279°
2026-05-06 15:49 53.34129 -0.48746 38049 ft 444 kts 279°
2026-05-06 15:49 53.35147 -0.58930 38047 ft 443 kts 279°
2026-05-06 15:50 53.36155 -0.69112 38045 ft 443 kts 279°
2026-05-06 15:50 53.37154 -0.79288 38050 ft 443 kts 278°
2026-05-06 15:51 53.38139 -0.89395 38043 ft 443 kts 278°
2026-05-06 15:51 53.39122 -0.99589 38049 ft 443 kts 278°
2026-05-06 15:52 53.40095 -1.09783 38042 ft 443 kts 278°
2026-05-06 15:52 53.41061 -1.19984 38045 ft 443 kts 278°
2026-05-06 15:53 53.42017 -1.30202 38042 ft 444 kts 278°
2026-05-06 15:53 53.42963 -1.40427 38042 ft 444 kts 278°
2026-05-06 15:54 53.43905 -1.50657 38039 ft 444 kts 278°
2026-05-06 15:54 53.44831 -1.60847 38023 ft 434 kts 278°
2026-05-06 15:55 53.45719 -1.70703 38030 ft 424 kts 278°
2026-05-06 15:55 53.46589 -1.80445 38035 ft 421 kts 278°
2026-05-06 15:56 53.47446 -1.90150 38037 ft 420 kts 278°
2026-05-06 15:56 53.48293 -1.99834 38027 ft 419 kts 278°
2026-05-06 15:57 53.49134 -2.09518 38035 ft 419 kts 278°
2026-05-06 15:57 53.49968 -2.19227 38029 ft 421 kts 278°
2026-05-06 15:58 53.50794 -2.28968 38029 ft 422 kts 278°
2026-05-06 15:58 53.51616 -2.38748 38021 ft 423 kts 278°
2026-05-06 15:59 53.52433 -2.48563 38027 ft 425 kts 278°
2026-05-06 15:59 53.53240 -2.58342 38025 ft 426 kts 278°
2026-05-06 16:00 53.54046 -2.68221 38024 ft 427 kts 278°
2026-05-06 16:00 53.54845 -2.78117 38031 ft 427 kts 277°
2026-05-06 16:01 53.55637 -2.88034 38026 ft 428 kts 277°
2026-05-06 16:01 53.56421 -2.97956 37861 ft 430 kts 277°
2026-05-06 16:02 53.56807 -3.02877 37566 ft 427 kts 277°
2026-05-06 16:02 53.57196 -3.07866 37140 ft 422 kts 278°
2026-05-06 16:02 53.57572 -3.12721 36767 ft 416 kts 278°
2026-05-06 16:02 53.57943 -3.17528 36369 ft 412 kts 278°
2026-05-06 16:03 53.58302 -3.22216 36000 ft 407 kts 278°
2026-05-06 16:03 53.58661 -3.26919 35615 ft 403 kts 278°
2026-05-06 16:03 53.59014 -3.31582 35226 ft 400 kts 278°
2026-05-06 16:03 53.59364 -3.36208 34845 ft 397 kts 278°
2026-05-06 16:04 53.59708 -3.40794 34462 ft 394 kts 278°
2026-05-06 16:04 53.60049 -3.45356 34087 ft 391 kts 278°
2026-05-06 16:04 53.60386 -3.49878 33647 ft 388 kts 278°
2026-05-06 16:04 53.60719 -3.54368 33234 ft 385 kts 278°
2026-05-06 16:05 53.61046 -3.58814 32871 ft 381 kts 278°
2026-05-06 16:05 53.61369 -3.63217 32489 ft 377 kts 279°
2026-05-06 16:05 53.61880 -3.67512 32125 ft 372 kts 287°
2026-05-06 16:05 53.62774 -3.71573 31788 ft 367 kts 293°
2026-05-06 16:06 53.63748 -3.75532 31418 ft 365 kts 293°
2026-05-06 16:06 53.64718 -3.79463 31069 ft 362 kts 293°
2026-05-06 16:06 53.65671 -3.83369 30717 ft 359 kts 293°
2026-05-06 16:06 53.66607 -3.87255 30369 ft 356 kts 292°
2026-05-06 16:07 53.67528 -3.91114 30023 ft 354 kts 292°
2026-05-06 16:07 53.68441 -3.94954 29638 ft 350 kts 292°
2026-05-06 16:07 53.69339 -3.98740 29312 ft 345 kts 292°
2026-05-06 16:07 53.70213 -4.02430 28960 ft 342 kts 292°
2026-05-06 16:08 53.71083 -4.06144 28597 ft 338 kts 290°
2026-05-06 16:08 53.71692 -4.09959 28264 ft 335 kts 281°
2026-05-06 16:08 53.71922 -4.13863 27915 ft 333 kts 275°
2026-05-06 16:08 53.72057 -4.17744 27566 ft 330 kts 275°
2026-05-06 16:09 53.72182 -4.21599 27229 ft 327 kts 275°
2026-05-06 16:09 53.72312 -4.25472 26878 ft 325 kts 275°
2026-05-06 16:09 53.72445 -4.29261 26554 ft 322 kts 275°
2026-05-06 16:09 53.72582 -4.33026 26216 ft 320 kts 275°
2026-05-06 16:10 53.72718 -4.36706 25896 ft 318 kts 275°
2026-05-06 16:10 53.72854 -4.40435 25579 ft 317 kts 275°
2026-05-06 16:10 53.72988 -4.44154 25251 ft 318 kts 275°
2026-05-06 16:10 53.73124 -4.47932 24943 ft 327 kts 275°
2026-05-06 16:11 53.73261 -4.51803 24606 ft 333 kts 275°
2026-05-06 16:11 53.73397 -4.55697 24253 ft 331 kts 275°
2026-05-06 16:11 53.73531 -4.59559 24010 ft 327 kts 274°
2026-05-06 16:11 53.73664 -4.63412 23552 ft 329 kts 274°
2026-05-06 16:12 53.73795 -4.67250 23167 ft 326 kts 274°
2026-05-06 16:12 53.73924 -4.71059 22793 ft 324 kts 274°
2026-05-06 16:12 53.74050 -4.74780 22465 ft 320 kts 274°
2026-05-06 16:12 53.74174 -4.78519 22126 ft 317 kts 274°
2026-05-06 16:13 53.74296 -4.82220 21790 ft 314 kts 274°
2026-05-06 16:13 53.74416 -4.85887 21471 ft 311 kts 274°
2026-05-06 16:13 53.74534 -4.89525 21146 ft 309 kts 274°
2026-05-06 16:13 53.74652 -4.93139 20816 ft 306 kts 274°
2026-05-06 16:14 53.74767 -4.96719 20502 ft 304 kts 274°
2026-05-06 16:14 53.74881 -5.00273 20184 ft 302 kts 274°
2026-05-06 16:14 53.74993 -5.03803 19872 ft 300 kts 273°
2026-05-06 16:14 53.75103 -5.07310 19562 ft 298 kts 273°
2026-05-06 16:15 53.75211 -5.10794 19248 ft 296 kts 273°
2026-05-06 16:15 53.75153 -5.14262 18943 ft 295 kts 262°
2026-05-06 16:15 53.74650 -5.17617 18713 ft 295 kts 253°
2026-05-06 16:15 53.73983 -5.20903 18482 ft 298 kts 252°
2026-05-06 16:16 53.73289 -5.24223 18237 ft 302 kts 252°
2026-05-06 16:16 53.72598 -5.27538 17977 ft 303 kts 252°
2026-05-06 16:16 53.71906 -5.30890 17691 ft 302 kts 252°
2026-05-06 16:16 53.71222 -5.34218 17447 ft 298 kts 252°
2026-05-06 16:17 53.70550 -5.37506 17130 ft 295 kts 252°
2026-05-06 16:17 53.69886 -5.40768 16808 ft 293 kts 252°
2026-05-06 16:17 53.69225 -5.44004 16489 ft 291 kts 252°
2026-05-06 16:17 53.68567 -5.47219 16166 ft 289 kts 252°
2026-05-06 16:18 53.67923 -5.50416 15828 ft 287 kts 254°
2026-05-06 16:18 53.67429 -5.53724 15316 ft 292 kts 258°
2026-05-06 16:18 53.67013 -5.57079 14940 ft 292 kts 259°
2026-05-06 16:18 53.66604 -5.60428 14618 ft 291 kts 259°
2026-05-06 16:19 53.66188 -5.63758 14299 ft 289 kts 258°
2026-05-06 16:19 53.65764 -5.67069 13975 ft 288 kts 258°
2026-05-06 16:19 53.65334 -5.70360 13647 ft 287 kts 258°
2026-05-06 16:19 53.64903 -5.73632 13300 ft 285 kts 258°
2026-05-06 16:20 53.64473 -5.76880 12971 ft 283 kts 258°
2026-05-06 16:20 53.64045 -5.80102 12678 ft 280 kts 258°
2026-05-06 16:20 53.63622 -5.83287 12410 ft 277 kts 258°
2026-05-06 16:20 53.63201 -5.86443 12149 ft 276 kts 258°
2026-05-06 16:21 53.62779 -5.89604 11893 ft 277 kts 258°
2026-05-06 16:21 53.62356 -5.92771 11637 ft 277 kts 258°
2026-05-06 16:21 53.61932 -5.95939 11384 ft 278 kts 258°
2026-05-06 16:21 53.61506 -5.99113 11133 ft 278 kts 258°
2026-05-06 16:22 53.61081 -6.02285 10886 ft 278 kts 258°
2026-05-06 16:22 53.60654 -6.05458 10633 ft 278 kts 258°
2026-05-06 16:22 53.60225 -6.08629 10388 ft 277 kts 258°
2026-05-06 16:22 53.59797 -6.11788 10140 ft 277 kts 258°
2026-05-06 16:23 53.59436 -6.14917 9884 ft 275 kts 268°
2026-05-06 16:23 53.59693 -6.18070 9631 ft 271 kts 285°
2026-05-06 16:23 53.60256 -6.21074 9362 ft 268 kts 288°
2026-05-06 16:23 53.60842 -6.24039 9091 ft 266 kts 288°
2026-05-06 16:24 53.61421 -6.26984 8828 ft 264 kts 288°
2026-05-06 16:24 53.61988 -6.29909 8559 ft 261 kts 287°
2026-05-06 16:24 53.62543 -6.32811 8296 ft 259 kts 287°
2026-05-06 16:24 53.63089 -6.35691 8069 ft 257 kts 287°
2026-05-06 16:25 53.63628 -6.38554 8000 ft 255 kts 287°
2026-05-06 16:25 53.64158 -6.41369 7983 ft 249 kts 287°
2026-05-06 16:25 53.64471 -6.44170 7975 ft 240 kts 265°
2026-05-06 16:25 53.64038 -6.46795 7795 ft 238 kts 242°
2026-05-06 16:26 53.63095 -6.49063 7571 ft 236 kts 232°
2026-05-06 16:26 53.62039 -6.51178 7322 ft 235 kts 230°
2026-05-06 16:26 53.60974 -6.53264 7070 ft 235 kts 230°
2026-05-06 16:26 53.59915 -6.55354 6821 ft 234 kts 230°
2026-05-06 16:27 53.58869 -6.57441 6586 ft 233 kts 230°
2026-05-06 16:27 53.57831 -6.59520 6339 ft 232 kts 231°
2026-05-06 16:27 53.56798 -6.61594 6082 ft 231 kts 231°
2026-05-06 16:27 53.55770 -6.63657 5828 ft 230 kts 231°
2026-05-06 16:28 53.54736 -6.65682 5616 ft 227 kts 224°
2026-05-06 16:28 53.53365 -6.66935 5373 ft 227 kts 195°
2026-05-06 16:28 53.51826 -6.67322 5127 ft 220 kts 187°
2026-05-06 16:28 53.50333 -6.67530 4910 ft 210 kts 186°
2026-05-06 16:29 53.48909 -6.67723 4694 ft 201 kts 186°
2026-05-06 16:29 53.47553 -6.67427 4457 ft 195 kts 157°
2026-05-06 16:29 53.46496 -6.66136 4283 ft 188 kts 124°
2026-05-06 16:29 53.46108 -6.64125 4100 ft 177 kts 99°
2026-05-06 16:30 53.45840 -6.62123 3905 ft 174 kts 101°
2026-05-06 16:30 53.45756 -6.61458 3868 ft 170 kts 100°
2026-05-06 16:30 53.45470 -6.58328 3558 ft 159 kts 95°
2026-05-06 16:30 53.45348 -6.56503 3392 ft 157 kts 94°
2026-05-06 16:31 53.45237 -6.54685 3359 ft 159 kts 94°
2026-05-06 16:31 53.45127 -6.52816 3160 ft 160 kts 93°
2026-05-06 16:31 53.45019 -6.50963 2939 ft 159 kts 94°
2026-05-06 16:31 53.44914 -6.49147 2730 ft 154 kts 94°
2026-05-06 16:32 53.44846 -6.47960 2587 ft 155 kts 94°
2026-05-06 16:32 53.44709 -6.45585 2307 ft 154 kts 94°
2026-05-06 16:32 53.44608 -6.43810 2096 ft 152 kts 95°
2026-05-06 16:32 53.44508 -6.42060 1894 ft 151 kts 95°
2026-05-06 16:33 53.44408 -6.40315 1692 ft 150 kts 95°
2026-05-06 16:33 53.44309 -6.38577 1477 ft 149 kts 95°
2026-05-06 16:33 53.44243 -6.37409 1331 ft 148 kts 95°
2026-05-06 16:34 53.44056 -6.34054 928 ft 142 kts 96°
2026-05-06 16:34 53.43960 -6.32409 742 ft 141 kts 97°
2026-05-06 16:34 53.43874 -6.30756 534 ft 144 kts 97°
2026-05-06 16:34 53.43778 -6.29098 374 ft 142 kts 97°
2026-05-06 16:35 53.43684 -6.27444 221 ft 139 kts 97°
2026-05-06 16:35 53.43605 -6.26039 217 ft 94 kts 93°
2026-05-06 16:35 53.43533 -6.25250 209 ft 18 kts 114°
2026-05-06 16:35 53.43500 -6.25146 214 ft 11 kts 120°
2026-05-06 16:36 53.43462 -6.25035 217 ft 11 kts 120°
2026-05-06 16:36 53.43401 -6.25001 218 ft 10 kts 209°
2026-05-06 16:36 53.43382 -6.25109 210 ft 10 kts 273°
2026-05-06 16:36 53.43389 -6.25223 216 ft 10 kts 276°
2026-05-06 16:37 53.43396 -6.25334 210 ft 9 kts 275°
2026-05-06 16:37 53.43402 -6.25451 214 ft 11 kts 275°
2026-05-06 16:37 53.43407 -6.25582 210 ft 11 kts 264°
2026-05-06 16:37 53.43352 -6.25647 210 ft 11 kts 169°
2026-05-06 16:38 53.43283 -6.25598 214 ft 11 kts 156°
2026-05-06 16:38 53.43217 -6.25548 216 ft 10 kts 153°
2026-05-06 16:38 53.43192 -6.25449 214 ft 10 kts 74°
2026-05-06 16:38 53.43220 -6.25343 214 ft 10 kts 65°
2026-05-06 16:39 53.43229 -6.25218 219 ft 12 kts 96°
2026-05-06 16:39 53.43221 -6.25077 210 ft 12 kts 96°
2026-05-06 16:39 53.43213 -6.24940 218 ft 12 kts 95°
2026-05-06 16:39 53.43196 -6.24877 218 ft 3 kts 167°
2026-05-06 16:40 53.43177 -6.24882 213 ft 3 kts 188°
2026-05-06 16:40 53.43148 -6.24887 216 ft 4 kts 186°
2026-05-06 16:40 53.43118 -6.24892 213 ft 4 kts 186°
2026-05-06 16:40 53.43105 -6.24894 210 ft 0 kts 185°